Hourly Data Report for October 30, 2016

All times are specified in Local Standard Time (LST). Add 1 hour to adjust for Daylight Saving Time where and when it is observed.

BATHURST A
NEW BRUNSWICK

47°37'47.000" N
65°44'20.000" W
58.80 m
8100505
71574
ZBF

Download Data

Hourly Data (October 2016)
Hourly Data Report for October 30, 2016
Temp Definition
°C
Dew Point Temp Definition
°C
Rel Hum Definition
%
Wind Dir Definition
10's deg

Wind Spd Definition
km/h
Visibility Definition
km
Stn Press Definition
kPa
Hmdx Definition


Wind Chill Definition


Weather Definition


TIME
00:00 Legend Double Dagger 6.1 6.0 99 30 10 3.2 99.77     Rain,Fog
01:00 Legend Double Dagger 5.9 5.6 98 29 10 3.2 99.69     Rain,Fog
02:00 Legend Double Dagger 5.9 5.3 96 29 8 3.2 99.63     Rain,Fog
03:00 Legend Double Dagger 5.9 5.5 97 26 8 3.2 99.58     Rain,Fog
04:00 Legend Double Dagger 6.0 5.4 96 29 12 3.2 99.55     Rain,Fog
05:00 Legend Double Dagger 6.6 6.3 98 34 10 4.8 99.54     Rain,Fog
06:00 Legend Double Dagger 7.2 6.9 98 5 23 4.8 99.58     Rain,Fog
07:00 Legend Double Dagger 7.0 6.7 98 5 22 4.0 99.67     Rain,Fog
08:00 Legend Double Dagger 6.8 6.5 98 3 18 4.8 99.78     Rain,Fog
09:00 Legend Double Dagger 6.5 6.2 98 2 13 4.0 99.86     Rain,Fog
10:00 Legend Double Dagger 6.5 6.2 98 2 10 4.8 99.92     Rain,Fog
11:00 Legend Double Dagger 6.6 6.2 97 2 11 6.4 99.95     Rain,Fog
12:00 Legend Double Dagger 6.7 5.8 94 1 13 12.9 99.95     Rain
13:00 Legend Double Dagger 6.5 5.8 95 34 11 9.7 99.99     Drizzle,Fog
14:00 Legend Double Dagger 7.5 6.1 91 35 4 16.1 100.01     Rain
15:00 Legend Double Dagger 7.6 5.8 88 34 9 19.3 100.03     Rain
16:00 Legend Double Dagger 7.6 5.9 89 33 5 19.3 100.07     LegendNANA
17:00 Legend Double Dagger 7.5 6.1 91 36 3 24.1 100.08     Mostly Cloudy
18:00 Legend Double Dagger 7.2 6.3 94 28 3 19.3 100.14     Rain Showers
19:00 Legend Double Dagger 7.1 6.4 95 2 3 16.1 100.19     LegendNANA
20:00 Legend Double Dagger 6.2 5.8 97 30 6 3.2 100.26     Drizzle,Fog
21:00 Legend Double Dagger 5.8 4.9 94 32 12 4.8 100.27     Drizzle
22:00 Legend Double Dagger 5.1 4.1 93 33 12 4.8 100.25     Drizzle,Fog
23:00 Legend Double Dagger 4.8 3.5 91 30 8 11.3 100.29     Cloudy

Notes on Data Quality.

Legend

  • E = Estimated
  • M = Missing
  • NA = Not Available
  • ‡ = Partner data that is not subject to review by the National Climate Archives
Date modified: